| time (UTC) | temp F | wind direction | speed knots | gust knots | rain 1hr in | rain 24hr in | rain mn in | humidity % | barometer mb |
| 20260507094125 | 32 | 254 | 0.0 | 0.0 | 0.00 | 0.00 | 0.00 | 72 | 1023.9 |
| 20260507093639 | 32 | 254 | 0.0 | 0.0 | 0.00 | 0.00 | 0.00 | 71 | 1023.9 |
| 20260507093134 | 32 | 254 | 0.0 | 0.0 | 0.00 | 0.00 | 0.00 | 71 | 1023.9 |
| 20260507092629 | 32 | 254 | 0.0 | 0.0 | 0.00 | 0.00 | 0.00 | 71 | 1023.9 |
| 20260507092142 | 32 | 254 | 0.0 | 0.0 | 0.00 | 0.00 | 0.00 | 71 | 1023.9 |
| 20260507091657 | 32 | 254 | 0.0 | 0.0 | 0.00 | 0.00 | 0.00 | 72 | 1023.9 |
| 20260507091151 | 32 | 254 | 0.0 | 0.0 | 0.00 | 0.00 | 0.00 | 73 | 1023.9 |
| 20260507090624 | 32 | 254 | 0.0 | 0.0 | 0.00 | 0.00 | 0.00 | 72 | 1023.9 |
| 20260507090142 | 32 | 254 | 0.0 | 0.0 | 0.00 | 0.00 | 0.00 | 73 | 1023.9 |
| 20260507085636 | 32 | 254 | 0.0 | 0.0 | 0.00 | 0.00 | 0.00 | 72 | 1023.8 |
| 20260507085131 | 32 | 254 | 0.0 | 0.0 | 0.00 | 0.00 | 0.00 | 72 | 1023.9 |
| 20260507084625 | 32 | 254 | 0.0 | 0.0 | 0.00 | 0.00 | 0.00 | 71 | 1023.8 |
| 20260507084139 | 32 | 254 | 0.0 | 0.0 | 0.00 | 0.00 | 0.00 | 70 | 1023.7 |
| 20260507083634 | 32 | 254 | 0.0 | 0.0 | 0.00 | 0.00 | 0.00 | 70 | 1023.8 |
| 20260507083128 | 32 | 254 | 0.0 | 0.0 | 0.00 | 0.00 | 0.00 | 69 | 1023.9 |
| 20260507082627 | 32 | 254 | 0.0 | 0.0 | 0.00 | 0.00 | 0.00 | 69 | 1023.8 |
| 20260507082140 | 32 | 254 | 0.0 | 0.0 | 0.00 | 0.00 | 0.00 | 69 | 1023.8 |
| 20260507081634 | 32 | 254 | 0.0 | 0.0 | 0.00 | 0.00 | 0.00 | 69 | 1023.8 |
| 20260507081149 | 32 | 254 | 0.0 | 0.0 | 0.00 | 0.00 | 0.00 | 69 | 1023.8 |
| 20260507080623 | 32 | 254 | 0.0 | 0.0 | 0.00 | 0.00 | 0.00 | 68 | 1023.7 |
| 20260507080136 | 33 | 254 | 0.0 | 0.0 | 0.00 | 0.00 | 0.00 | 68 | 1023.7 |
| 20260507075630 | 33 | 254 | 0.0 | 0.0 | 0.00 | 0.00 | 0.00 | 67 | 1023.8 |
| 20260507075125 | 33 | 254 | 0.0 | 0.0 | 0.00 | 0.00 | 0.00 | 67 | 1023.8 |
| 20260507074623 | 33 | 254 | 0.0 | 0.0 | 0.00 | 0.00 | 0.00 | 67 | 1023.8 |
| 20260507074157 | 34 | 254 | 0.0 | 0.0 | 0.00 | 0.00 | 0.00 | 67 | 1023.9 |
| 20260507073651 | 34 | 254 | 0.0 | 0.0 | 0.00 | 0.00 | 0.00 | 67 | 1023.9 |
| 20260507073145 | 34 | 254 | 0.0 | 0.0 | 0.00 | 0.00 | 0.00 | 67 | 1023.9 |
| 20260507072639 | 35 | 254 | 0.0 | 1.7 | 0.00 | 0.00 | 0.00 | 68 | 1023.8 |
| 20260507072133 | 35 | 24 | 0.0 | 3.5 | 0.00 | 0.00 | 0.00 | 68 | 1023.8 |
| 20260507071628 | 35 | 45 | 0.9 | 3.5 | 0.00 | 0.00 | 0.00 | 67 | 1023.8 |
| 20260507071141 | 36 | 243 | 0.0 | 0.0 | 0.00 | 0.00 | 0.00 | 68 | 1023.8 |
| 20260507070636 | 36 | 243 | 0.0 | 0.0 | 0.00 | 0.00 | 0.00 | 68 | 1023.7 |
| 20260507070131 | 36 | 355 | 0.0 | 0.0 | 0.00 | 0.00 | 0.00 | 68 | 1023.6 |
| 20260507065645 | 36 | 265 | 0.0 | 0.0 | 0.00 | 0.00 | 0.00 | 68 | 1023.4 |
| 20260507065142 | 36 | 265 | 0.0 | 0.0 | 0.00 | 0.00 | 0.00 | 67 | 1023.4 |
| 20260507064635 | 35 | 269 | 0.0 | 0.0 | 0.00 | 0.00 | 0.00 | 68 | 1023.3 |
| 20260507064130 | 35 | 269 | 0.0 | 0.0 | 0.00 | 0.00 | 0.00 | 69 | 1023.3 |
| 20260507063624 | 34 | 269 | 0.0 | 0.0 | 0.00 | 0.00 | 0.00 | 67 | 1023.2 |
| 20260507063140 | 34 | 269 | 0.0 | 0.0 | 0.00 | 0.00 | 0.00 | 67 | 1023.2 |
| 20260507062633 | 34 | 269 | 0.0 | 0.0 | 0.00 | 0.00 | 0.00 | 66 | 1023.3 |
| 20260507062127 | 34 | 269 | 0.0 | 0.0 | 0.00 | 0.00 | 0.00 | 65 | 1023.2 |
| 20260507061625 | 34 | 269 | 0.0 | 0.0 | 0.00 | 0.00 | 0.00 | 65 | 1023.2 |
| 20260507061139 | 34 | 269 | 0.0 | 0.0 | 0.00 | 0.00 | 0.00 | 65 | 1023.2 |
| 20260507060634 | 34 | 269 | 0.0 | 0.0 | 0.00 | 0.00 | 0.00 | 66 | 1023.2 |
| 20260507060127 | 34 | 269 | 0.0 | 0.0 | 0.00 | 0.00 | 0.00 | 66 | 1023.1 |
| 20260507055638 | 34 | 269 | 0.0 | 0.0 | 0.00 | 0.00 | 0.00 | 66 | 1023.0 |
| 20260507055134 | 33 | 269 | 0.0 | 0.0 | 0.00 | 0.00 | 0.00 | 67 | 1022.9 |
| 20260507054628 | 33 | 269 | 0.0 | 0.0 | 0.00 | 0.00 | 0.00 | 66 | 1022.8 |
| 20260507054142 | 33 | 269 | 0.0 | 0.0 | 0.00 | 0.00 | 0.00 | 64 | 1022.8 |
| 20260507053637 | 33 | 269 | 0.0 | 0.0 | 0.00 | 0.00 | 0.00 | 64 | 1022.7 |
| 20260507053135 | 34 | 269 | 0.0 | 0.0 | 0.00 | 0.00 | 0.00 | 63 | 1022.7 |
| 20260507052629 | 34 | 269 | 0.0 | 0.0 | 0.00 | 0.00 | 0.00 | 62 | 1022.7 |
| 20260507052142 | 34 | 269 | 0.0 | 0.0 | 0.00 | 0.00 | 0.00 | 61 | 1022.7 |
| 20260507051637 | 34 | 269 | 0.0 | 2.6 | 0.00 | 0.00 | 0.00 | 60 | 1022.7 |
| 20260507051129 | 35 | 269 | 0.9 | 2.6 | 0.00 | 0.00 | 0.00 | 61 | 1022.8 |
| 20260507050624 | 35 | 330 | 0.0 | 0.0 | 0.00 | 0.00 | 0.00 | 60 | 1022.8 |
| 20260507050137 | 35 | 275 | 0.0 | 0.0 | 0.00 | 0.00 | 0.00 | 60 | 1022.7 |
| 20260507045631 | 36 | 275 | 0.0 | 0.0 | 0.00 | 0.00 | 0.00 | 59 | 1022.7 |
| 20260507045123 | 36 | 275 | 0.0 | 0.0 | 0.00 | 0.00 | 0.00 | 60 | 1022.5 |
| 20260507044642 | 36 | 275 | 0.0 | 0.0 | 0.00 | 0.00 | 0.00 | 59 | 1022.5 |
| 20260507044136 | 37 | 275 | 0.0 | 0.0 | 0.00 | 0.00 | 0.00 | 58 | 1022.5 |
| 20260507043630 | 37 | 275 | 0.0 | 0.0 | 0.00 | 0.00 | 0.00 | 59 | 1022.4 |
| 20260507043125 | 37 | 275 | 0.0 | 0.0 | 0.00 | 0.00 | 0.00 | 59 | 1022.4 |
| 20260507042639 | 38 | 275 | 0.0 | 0.0 | 0.00 | 0.00 | 0.00 | 58 | 1022.3 |
| 20260507042134 | 38 | 275 | 0.0 | 0.0 | 0.00 | 0.00 | 0.00 | 58 | 1022.3 |
| 20260507041648 | 39 | 275 | 0.0 | 0.0 | 0.00 | 0.00 | 0.00 | 59 | 1022.2 |
| 20260507041141 | 39 | 275 | 0.0 | 0.0 | 0.00 | 0.00 | 0.00 | 57 | 1022.2 |
| 20260507040656 | 40 | 275 | 0.0 | 0.0 | 0.00 | 0.00 | 0.00 | 60 | 1022.2 |
| 20260507040152 | 40 | 275 | 0.0 | 1.7 | 0.00 | 0.00 | 0.00 | 60 | 1022.1 |
| 20260507035625 | 41 | 275 | 0.0 | 1.7 | 0.00 | 0.00 | 0.00 | 61 | 1022.0 |
| 20260507035140 | 42 | 275 | 0.0 | 2.6 | 0.00 | 0.00 | 0.00 | 60 | 1021.9 |
| 20260507034634 | 42 | 188 | 0.9 | 2.6 | 0.00 | 0.00 | 0.00 | 61 | 1021.8 |
| 20260507034127 | 43 | 136 | 0.0 | 0.0 | 0.00 | 0.00 | 0.00 | 60 | 1021.7 |
| 20260507033640 | 43 | 136 | 0.0 | 0.9 | 0.00 | 0.00 | 0.00 | 59 | 1021.6 |
| 20260507033134 | 43 | 136 | 0.0 | 1.7 | 0.00 | 0.00 | 0.00 | 59 | 1021.5 |
| 20260507032627 | 43 | 136 | 0.9 | 3.5 | 0.00 | 0.00 | 0.00 | 58 | 1021.5 |
| 20260507032123 | 44 | 136 | 1.7 | 3.5 | 0.00 | 0.00 | 0.00 | 56 | 1021.3 |
| 20260507031638 | 44 | 133 | 0.0 | 2.6 | 0.00 | 0.00 | 0.00 | 55 | 1021.3 |
| 20260507031132 | 45 | 111 | 0.0 | 1.7 | 0.00 | 0.00 | 0.00 | 53 | 1021.1 |
| 20260507030625 | 45 | 113 | 0.9 | 1.7 | 0.00 | 0.00 | 0.00 | 52 | 1021.1 |
| 20260507030140 | 46 | 61 | 0.9 | 3.5 | 0.00 | 0.00 | 0.00 | 52 | 1021.1 |
| 20260507025653 | 46 | 79 | 0.9 | 4.3 | 0.00 | 0.01 | 0.00 | 49 | 1021.0 |
| 20260507025125 | 47 | 132 | 0.9 | 3.5 | 0.00 | 0.01 | 0.00 | 46 | 1020.8 |
| 20260507024639 | 47 | 72 | 0.0 | 2.6 | 0.00 | 0.01 | 0.00 | 39 | 1020.7 |
| 20260507024134 | 47 | 309 | 0.9 | 2.6 | 0.00 | 0.01 | 0.00 | 40 | 1020.5 |
| 20260507023632 | 47 | 345 | 0.0 | 3.5 | 0.00 | 0.01 | 0.00 | 39 | 1020.3 |
| 20260507023126 | 47 | 315 | 0.9 | 3.5 | 0.00 | 0.01 | 0.00 | 39 | 1020.1 |
| 20260507022639 | 48 | 282 | 0.0 | 0.0 | 0.00 | 0.01 | 0.00 | 39 | 1020.0 |
| 20260507022133 | 49 | 34 | 0.0 | 0.0 | 0.00 | 0.01 | 0.00 | 35 | 1019.9 |
| 20260507021626 | 49 | 34 | 0.0 | 0.0 | 0.00 | 0.01 | 0.00 | 35 | 1019.7 |
| 20260507021140 | 50 | 34 | 0.0 | 0.0 | 0.00 | 0.01 | 0.00 | 36 | 1019.6 |
| 20260507020633 | 50 | 34 | 0.0 | 2.6 | 0.00 | 0.01 | 0.00 | 34 | 1019.5 |
| 20260507020126 | 50 | 43 | 0.0 | 5.2 | 0.00 | 0.01 | 0.00 | 33 | 1019.4 |
| 20260507015624 | 50 | 32 | 0.9 | 5.2 | 0.00 | 0.01 | 0.00 | 33 | 1019.3 |
| 20260507015139 | 50 | 22 | 0.9 | 5.2 | 0.00 | 0.01 | 0.00 | 33 | 1019.3 |
| 20260507014634 | 50 | 57 | 1.7 | 4.3 | 0.00 | 0.01 | 0.00 | 34 | 1019.2 |
| 20260507014127 | 50 | 54 | 0.9 | 4.3 | 0.00 | 0.01 | 0.00 | 35 | 1019.2 |
| 20260507013622 | 50 | 35 | 0.9 | 1.7 | 0.00 | 0.01 | 0.00 | 38 | 1019.1 |
| 20260507013135 | 51 | 32 | 0.9 | 4.3 | 0.00 | 0.01 | 0.00 | 38 | 1019.1 |
| 20260507012629 | 50 | 52 | 1.7 | 7.0 | 0.00 | 0.01 | 0.00 | 37 | 1018.9 |
| 20260507012143 | 50 | 230 | 0.9 | 4.3 | 0.00 | 0.01 | 0.00 | 40 | 1018.8 |
| 20260507011640 | 50 | 19 | 1.7 | 6.1 | 0.00 | 0.01 | 0.00 | 40 | 1018.7 |
| 20260507011132 | 50 | 282 | 1.7 | 6.1 | 0.00 | 0.01 | 0.00 | 40 | 1018.6 |
| 20260507010626 | 50 | 30 | 0.9 | 3.5 | 0.00 | 0.01 | 0.00 | 41 | 1018.6 |
| 20260507010140 | 51 | 5 | 0.9 | 3.5 | 0.00 | 0.01 | 0.00 | 42 | 1018.5 |
| 20260507005634 | 51 | 12 | 1.7 | 4.3 | 0.00 | 0.01 | 0.00 | 41 | 1018.5 |
| 20260507005147 | 51 | 54 | 1.7 | 7.8 | 0.00 | 0.01 | 0.00 | 40 | 1018.4 |
| 20260507004640 | 51 | 94 | 2.6 | 7.8 | 0.00 | 0.01 | 0.00 | 40 | 1018.5 |
| 20260507004134 | 51 | 239 | 1.7 | 5.2 | 0.00 | 0.01 | 0.00 | 40 | 1018.6 |
| 20260507003628 | 51 | 341 | 1.7 | 5.2 | 0.00 | 0.01 | 0.00 | 39 | 1018.7 |
| 20260507003125 | 52 | 221 | 1.7 | 5.2 | 0.00 | 0.01 | 0.00 | 39 | 1018.9 |
| 20260507002638 | 52 | 41 | 1.7 | 4.3 | 0.00 | 0.01 | 0.00 | 38 | 1018.7 |
| 20260507002130 | 53 | 250 | 1.7 | 5.2 | 0.00 | 0.01 | 0.00 | 35 | 1018.5 |
| 20260507001623 | 53 | 342 | 1.7 | 3.5 | 0.00 | 0.01 | 0.00 | 36 | 1018.4 |
| 20260507001158 | 53 | 40 | 1.7 | 4.3 | 0.00 | 0.01 | 0.00 | 36 | 1018.1 |
| 20260507000649 | 53 | 157 | 1.7 | 7.8 | 0.00 | 0.01 | 0.00 | 36 | 1018.1 |
| 20260507000124 | 54 | 254 | 2.6 | 10.4 | 0.00 | 0.01 | 0.00 | 36 | 1018.0 |
| 20260506235636 | 54 | 9 | 2.6 | 10.4 | 0.00 | 0.01 | 0.00 | 36 | 1018.1 |
| 20260506235128 | 54 | 313 | 3.5 | 10.4 | 0.00 | 0.01 | 0.00 | 35 | 1018.0 |
| 20260506234626 | 54 | 350 | 1.7 | 10.4 | 0.00 | 0.01 | 0.00 | 34 | 1018.0 |
| 20260506234200 | 55 | 96 | 3.5 | 9.6 | 0.00 | 0.01 | 0.00 | 34 | 1017.8 |
| 20260506233631 | 55 | 272 | 4.3 | 9.6 | 0.00 | 0.01 | 0.00 | 33 | 1017.7 |
| 20260506233124 | 55 | 299 | 2.6 | 5.2 | 0.00 | 0.01 | 0.00 | 34 | 1017.3 |
| 20260506232637 | 55 | 281 | 2.6 | 7.0 | 0.00 | 0.01 | 0.00 | 34 | 1017.4 |
| 20260506232129 | 55 | 248 | 2.6 | 7.0 | 0.00 | 0.01 | 0.00 | 35 | 1017.4 |
| 20260506231623 | 54 | 5 | 0.9 | 7.8 | 0.00 | 0.01 | 0.00 | 36 | 1017.2 |
| 20260506231135 | 54 | 38 | 2.6 | 7.8 | 0.00 | 0.01 | 0.00 | 35 | 1017.2 |
| 20260506230629 | 55 | 340 | 2.6 | 7.8 | 0.00 | 0.01 | 0.00 | 35 | 1017.3 |
| 20260506230126 | 55 | 33 | 3.5 | 8.7 | 0.00 | 0.01 | 0.00 | 34 | 1017.1 |
| 20260506225639 | 55 | 9 | 1.7 | 8.7 | 0.00 | 0.01 | 0.00 | 35 | 1016.8 |
| 20260506225133 | 55 | 26 | 3.5 | 8.7 | 0.00 | 0.01 | 0.00 | 34 | 1016.7 |
| 20260506224625 | 55 | 23 | 3.5 | 10.4 | 0.00 | 0.01 | 0.00 | 34 | 1016.8 |
| 20260506224139 | 56 | 355 | 3.5 | 10.4 | 0.00 | 0.01 | 0.00 | 34 | 1016.8 |
| 20260506223653 | 56 | 281 | 3.5 | 9.6 | 0.00 | 0.01 | 0.00 | 35 | 1016.5 |
| 20260506223126 | 56 | 221 | 4.3 | 9.6 | 0.00 | 0.01 | 0.00 | 37 | 1016.6 |
| 20260506222639 | 56 | 23 | 4.3 | 9.6 | 0.00 | 0.01 | 0.00 | 38 | 1016.5 |
| 20260506222133 | 56 | 45 | 4.3 | 12.2 | 0.00 | 0.01 | 0.00 | 39 | 1016.1 |
| 20260506221630 | 55 | 33 | 4.3 | 12.2 | 0.00 | 0.01 | 0.00 | 39 | 1016.2 |
| 20260506221123 | 55 | 355 | 2.6 | 7.0 | 0.00 | 0.01 | 0.00 | 43 | 1016.1 |
| 20260506220636 | 55 | 36 | 3.5 | 9.6 | 0.00 | 0.01 | 0.00 | 43 | 1016.2 |
| 20260506220129 | 54 | 23 | 1.7 | 7.0 | 0.00 | 0.01 | 0.00 | 44 | 1016.3 |
| 20260506215623 | 53 | 244 | 2.6 | 12.2 | 0.00 | 0.01 | 0.00 | 46 | 1016.2 |
| 20260506215157 | 52 | 40 | 3.5 | 12.2 | 0.00 | 0.01 | 0.00 | 47 | 1016.4 |
| 20260506214629 | 53 | 308 | 2.6 | 9.6 | 0.00 | 0.01 | 0.00 | 46 | 1016.4 |
| 20260506214142 | 52 | 292 | 5.2 | 10.4 | 0.00 | 0.01 | 0.00 | 47 | 1016.7 |
| 20260506213635 | 53 | 35 | 4.3 | 11.3 | 0.00 | 0.01 | 0.00 | 48 | 1016.8 |
| 20260506213133 | 53 | 9 | 4.3 | 11.3 | 0.00 | 0.01 | 0.00 | 48 | 1017.0 |
| 20260506212647 | 52 | 277 | 3.5 | 10.4 | 0.00 | 0.01 | 0.00 | 51 | 1017.0 |
| 20260506212138 | 55 | 37 | 4.3 | 9.6 | 0.00 | 0.01 | 0.00 | 50 | 1017.1 |
| 20260506211632 | 58 | 302 | 3.5 | 9.6 | 0.00 | 0.01 | 0.00 | 38 | 1016.7 |
| 20260506211125 | 59 | 266 | 4.3 | 9.6 | 0.00 | 0.01 | 0.00 | 32 | 1015.9 |
| 20260506210639 | 59 | 293 | 2.6 | 9.6 | 0.00 | 0.01 | 0.00 | 31 | 1015.7 |
| 20260506210133 | 60 | 38 | 3.5 | 9.6 | 0.00 | 0.01 | 0.00 | 31 | 1015.5 |
| 20260506205626 | 60 | 219 | 2.6 | 5.2 | 0.00 | 0.01 | 0.00 | 32 | 1015.4 |
| 20260506205123 | 60 | 159 | 2.6 | 6.1 | 0.00 | 0.01 | 0.00 | 32 | 1015.6 |
| 20260506204637 | 60 | 169 | 1.7 | 9.6 | 0.00 | 0.01 | 0.00 | 33 | 1015.5 |
| 20260506204131 | 60 | 18 | 2.6 | 9.6 | 0.00 | 0.01 | 0.00 | 32 | 1015.7 |
| 20260506203625 | 59 | 51 | 2.6 | 7.0 | 0.00 | 0.01 | 0.00 | 32 | 1015.6 |
| 20260506203159 | 59 | 138 | 1.7 | 9.6 | 0.00 | 0.01 | 0.00 | 35 | 1015.9 |
| 20260506202652 | 59 | 118 | 3.5 | 8.7 | 0.00 | 0.01 | 0.00 | 34 | 1015.9 |
| 20260506202123 | 60 | 321 | 2.6 | 8.7 | 0.00 | 0.01 | 0.00 | 33 | 1015.9 |
| 20260506201637 | 59 | 117 | 2.6 | 7.8 | 0.00 | 0.01 | 0.00 | 33 | 1015.7 |
| 20260506201131 | 59 | 335 | 4.3 | 9.6 | 0.00 | 0.01 | 0.00 | 33 | 1015.8 |
| 20260506200628 | 59 | 289 | 4.3 | 7.0 | 0.00 | 0.01 | 0.00 | 33 | 1015.8 |
| 20260506200202 | 59 | 236 | 2.6 | 7.8 | 0.00 | 0.01 | 0.00 | 38 | 1015.8 |
| 20260506195633 | 59 | 233 | 1.7 | 7.8 | 0.00 | 0.01 | 0.00 | 39 | 1015.8 |
| 20260506195127 | 58 | 153 | 1.7 | 7.0 | 0.00 | 0.01 | 0.00 | 40 | 1016.0 |
| 20260506194641 | 57 | 72 | 2.6 | 7.8 | 0.00 | 0.01 | 0.00 | 42 | 1015.9 |
| 20260506194135 | 56 | 255 | 3.5 | 7.8 | 0.00 | 0.01 | 0.00 | 43 | 1016.0 |
| 20260506193627 | 55 | 241 | 2.6 | 7.8 | 0.00 | 0.01 | 0.00 | 45 | 1016.1 |
| 20260506193141 | 54 | 148 | 3.5 | 7.8 | 0.00 | 0.01 | 0.00 | 46 | 1016.1 |
| 20260506192655 | 52 | 32 | 2.6 | 6.1 | 0.00 | 0.01 | 0.00 | 50 | 1016.3 |
| 20260506192132 | 51 | 113 | 2.6 | 7.8 | 0.00 | 0.01 | 0.00 | 55 | 1016.5 |
| 20260506191625 | 51 | 155 | 2.6 | 7.8 | 0.00 | 0.01 | 0.00 | 53 | 1016.8 |
| 20260506191139 | 52 | 76 | 2.6 | 10.4 | 0.00 | 0.01 | 0.00 | 51 | 1017.0 |
| 20260506190633 | 53 | 234 | 3.5 | 10.4 | 0.00 | 0.01 | 0.00 | 46 | 1017.0 |
| 20260506190126 | 54 | 5 | 4.3 | 9.6 | 0.00 | 0.01 | 0.00 | 43 | 1016.7 |
| 20260506185640 | 55 | 257 | 1.7 | 8.7 | 0.00 | 0.01 | 0.00 | 40 | 1016.5 |
| 20260506185154 | 55 | 59 | 2.6 | 8.7 | 0.00 | 0.01 | 0.00 | 40 | 1016.3 |
| 20260506184626 | 55 | 192 | 1.7 | 6.1 | 0.00 | 0.01 | 0.00 | 42 | 1016.3 |
| 20260506184124 | 54 | 76 | 2.6 | 9.6 | 0.00 | 0.01 | 0.00 | 42 | 1016.6 |
| 20260506183636 | 54 | 156 | 3.5 | 9.6 | 0.00 | 0.01 | 0.00 | 41 | 1016.6 |
| 20260506183130 | 54 | 213 | 2.6 | 5.2 | 0.00 | 0.01 | 0.00 | 42 | 1016.7 |
| 20260506182623 | 54 | 272 | 1.7 | 5.2 | 0.00 | 0.01 | 0.00 | 42 | 1016.7 |
| 20260506182158 | 54 | 331 | 1.7 | 7.8 | 0.00 | 0.01 | 0.00 | 43 | 1016.7 |
| 20260506181628 | 54 | 221 | 2.6 | 7.8 | 0.00 | 0.01 | 0.00 | 41 | 1016.8 |
| 20260506181122 | 54 | 276 | 3.5 | 8.7 | 0.00 | 0.01 | 0.00 | 41 | 1016.8 |
| 20260506180636 | 54 | 30 | 3.5 | 8.7 | 0.00 | 0.01 | 0.00 | 43 | 1016.7 |
| 20260506180130 | 54 | 320 | 2.6 | 6.1 | 0.00 | 0.01 | 0.00 | 39 | 1016.8 |
| 20260506175622 | 55 | 5 | 1.7 | 7.0 | 0.00 | 0.01 | 0.00 | 40 | 1016.8 |
| 20260506175156 | 55 | 28 | 1.7 | 8.7 | 0.00 | 0.01 | 0.00 | 40 | 1016.7 |
| 20260506174632 | 54 | 40 | 3.5 | 8.7 | 0.00 | 0.01 | 0.00 | 39 | 1016.6 |
| 20260506174126 | 54 | 39 | 4.3 | 9.6 | 0.00 | 0.01 | 0.00 | 38 | 1016.7 |
| 20260506173639 | 55 | 33 | 4.3 | 9.6 | 0.00 | 0.01 | 0.00 | 39 | 1016.8 |
| 20260506173134 | 55 | 34 | 2.6 | 6.1 | 0.00 | 0.01 | 0.00 | 39 | 1016.6 |
| 20260506172647 | 55 | 54 | 2.6 | 6.1 | 0.00 | 0.01 | 0.00 | 40 | 1016.6 |
| 20260506172139 | 55 | 87 | 2.6 | 7.0 | 0.00 | 0.01 | 0.00 | 41 | 1016.6 |
| 20260506171633 | 55 | 61 | 3.5 | 7.0 | 0.00 | 0.01 | 0.00 | 39 | 1016.7 |
| 20260506171125 | 54 | 26 | 2.6 | 7.0 | 0.00 | 0.01 | 0.00 | 41 | 1016.7 |
| 20260506170644 | 54 | 355 | 2.6 | 8.7 | 0.00 | 0.01 | 0.00 | 40 | 1016.8 |
| 20260506170137 | 54 | 37 | 3.5 | 8.7 | 0.00 | 0.01 | 0.00 | 41 | 1016.6 |
| 20260506165631 | 54 | 31 | 2.6 | 5.2 | 0.00 | 0.01 | 0.00 | 41 | 1016.4 |
| 20260506165125 | 54 | 19 | 3.5 | 7.8 | 0.00 | 0.01 | 0.00 | 42 | 1016.3 |
| 20260506164640 | 53 | 27 | 3.5 | 7.8 | 0.00 | 0.01 | 0.00 | 43 | 1016.3 |
| 20260506164153 | 53 | 67 | 3.5 | 7.8 | 0.00 | 0.01 | 0.00 | 43 | 1016.3 |
| 20260506163646 | 53 | 252 | 1.7 | 7.8 | 0.00 | 0.01 | 0.00 | 45 | 1016.2 |
| 20260506163139 | 52 | 31 | 1.7 | 7.8 | 0.00 | 0.01 | 0.00 | 46 | 1016.2 |
| 20260506162633 | 52 | 290 | 1.7 | 7.0 | 0.00 | 0.01 | 0.00 | 46 | 1016.1 |
| 20260506162129 | 52 | 161 | 2.6 | 7.0 | 0.00 | 0.01 | 0.00 | 46 | 1016.1 |
| 20260506161623 | 52 | 298 | 1.7 | 6.1 | 0.00 | 0.01 | 0.00 | 50 | 1016.2 |
| 20260506161137 | 51 | 149 | 2.6 | 7.8 | 0.00 | 0.01 | 0.00 | 51 | 1016.1 |
| 20260506160631 | 50 | 30 | 2.6 | 7.8 | 0.00 | 0.01 | 0.00 | 50 | 1016.2 |
| 20260506160125 | 50 | 279 | 1.7 | 7.8 | 0.00 | 0.01 | 0.00 | 51 | 1016.4 |
| 20260506155637 | 49 | 5 | 3.5 | 8.7 | 0.00 | 0.01 | 0.00 | 51 | 1016.3 |
| 20260506155152 | 49 | 277 | 4.3 | 8.7 | 0.00 | 0.01 | 0.00 | 52 | 1016.5 |
| 20260506154646 | 48 | 240 | 3.5 | 7.8 | 0.00 | 0.01 | 0.00 | 53 | 1016.5 |
| 20260506154138 | 48 | 15 | 3.5 | 9.6 | 0.00 | 0.01 | 0.00 | 52 | 1016.6 |
| 20260506153636 | 48 | 255 | 3.5 | 10.4 | 0.00 | 0.01 | 0.00 | 52 | 1016.6 |
| 20260506153129 | 48 | 29 | 4.3 | 10.4 | 0.00 | 0.01 | 0.00 | 53 | 1016.6 |
| 20260506152623 | 47 | 350 | 2.6 | 10.4 | 0.00 | 0.01 | 0.00 | 53 | 1016.7 |
| 20260506152137 | 48 | 14 | 3.5 | 10.4 | 0.00 | 0.01 | 0.00 | 53 | 1016.8 |
| 20260506151630 | 48 | 132 | 0.9 | 5.2 | 0.00 | 0.01 | 0.00 | 56 | 1016.8 |
| 20260506151123 | 48 | 213 | 1.7 | 4.3 | 0.00 | 0.01 | 0.00 | 57 | 1016.6 |
| 20260506150637 | 47 | 163 | 1.7 | 3.5 | 0.00 | 0.01 | 0.00 | 58 | 1016.6 |
| 20260506150132 | 46 | 248 | 0.9 | 2.6 | 0.00 | 0.01 | 0.00 | 58 | 1016.7 |
| 20260506145630 | 46 | 75 | 1.7 | 7.8 | 0.00 | 0.01 | 0.00 | 61 | 1016.7 |
| 20260506145124 | 46 | 30 | 5.2 | 8.7 | 0.00 | 0.01 | 0.00 | 57 | 1016.7 |
| 20260506144638 | 46 | 36 | 5.2 | 8.7 | 0.00 | 0.01 | 0.00 | 56 | 1016.8 |
| 20260506144132 | 46 | 34 | 0.9 | 5.2 | 0.00 | 0.01 | 0.00 | 57 | 1016.8 |
| 20260506143625 | 46 | 56 | 2.6 | 4.3 | 0.00 | 0.01 | 0.00 | 60 | 1016.8 |
| 20260506143139 | 45 | 109 | 1.7 | 5.2 | 0.00 | 0.01 | 0.00 | 60 | 1016.7 |
| 20260506142633 | 44 | 61 | 3.5 | 5.2 | 0.00 | 0.01 | 0.00 | 60 | 1016.7 |
| 20260506142127 | 44 | 43 | 0.0 | 4.3 | 0.00 | 0.01 | 0.00 | 60 | 1016.6 |
| 20260506141625 | 44 | 61 | 3.5 | 4.3 | 0.00 | 0.01 | 0.00 | 59 | 1016.6 |
| 20260506141158 | 44 | 9 | 3.5 | 4.3 | 0.00 | 0.01 | 0.00 | 58 | 1016.6 |
| 20260506140651 | 45 | 355 | 0.9 | 4.3 | 0.00 | 0.01 | 0.00 | 58 | 1016.4 |
| 20260506140123 | 45 | 55 | 2.6 | 5.2 | 0.00 | 0.01 | 0.00 | 57 | 1016.3 |
| 20260506135635 | 44 | 146 | 2.6 | 6.1 | 0.00 | 0.01 | 0.00 | 59 | 1016.2 |
| 20260506135130 | 44 | 133 | 1.7 | 6.1 | 0.00 | 0.01 | 0.00 | 60 | 1016.2 |
| 20260506134623 | 43 | 43 | 1.7 | 6.1 | 0.00 | 0.01 | 0.00 | 59 | 1016.2 |
| 20260506134136 | 43 | 83 | 2.6 | 8.7 | 0.00 | 0.01 | 0.00 | 61 | 1016.3 |
| 20260506133630 | 43 | 207 | 1.7 | 8.7 | 0.00 | 0.01 | 0.00 | 61 | 1016.4 |
| 20260506133123 | 43 | 183 | 1.7 | 5.2 | 0.00 | 0.01 | 0.00 | 62 | 1016.4 |
| 20260506132641 | 42 | 108 | 2.6 | 7.0 | 0.00 | 0.01 | 0.00 | 61 | 1016.4 |
| 20260506132134 | 42 | 276 | 3.5 | 7.8 | 0.00 | 0.01 | 0.00 | 60 | 1016.1 |
| 20260506131627 | 42 | 132 | 0.9 | 7.8 | 0.00 | 0.01 | 0.00 | 61 | 1016.1 |
| 20260506131142 | 42 | 76 | 2.6 | 7.8 | 0.00 | 0.01 | 0.00 | 61 | 1016.1 |
| 20260506130635 | 42 | 90 | 3.5 | 8.7 | 0.00 | 0.01 | 0.00 | 61 | 1016.1 |
| 20260506130128 | 42 | 216 | 2.6 | 9.6 | 0.00 | 0.01 | 0.00 | 63 | 1016.0 |
| 20260506125701 | 41 | 174 | 2.6 | 9.6 | 0.00 | 0.01 | 0.00 | 63 | 1016.0 |
| 20260506125134 | 41 | 39 | 2.6 | 8.7 | 0.00 | 0.01 | 0.00 | 64 | 1016.0 |
| 20260506124649 | 41 | 149 | 4.3 | 7.0 | 0.00 | 0.01 | 0.00 | 67 | 1016.0 |
| 20260506124125 | 41 | 156 | 0.0 | 4.3 | 0.00 | 0.01 | 0.00 | 69 | 1015.9 |
| 20260506123639 | 41 | 173 | 1.7 | 4.3 | 0.00 | 0.01 | 0.00 | 69 | 1015.9 |
| 20260506123132 | 41 | 83 | 0.0 | 0.0 | 0.00 | 0.01 | 0.00 | 66 | 1015.9 |
| 20260506122626 | 41 | 81 | 0.0 | 1.7 | 0.00 | 0.01 | 0.00 | 66 | 1015.8 |
| 20260506122200 | 41 | 81 | 0.9 | 1.7 | 0.00 | 0.01 | 0.00 | 66 | 1015.7 |
| 20260506121633 | 41 | 81 | 0.9 | 2.6 | 0.00 | 0.01 | 0.00 | 66 | 1015.7 |
| 20260506121146 | 41 | 319 | 0.9 | 2.6 | 0.00 | 0.01 | 0.00 | 65 | 1015.7 |
| 20260506120638 | 41 | 254 | 1.7 | 2.6 | 0.00 | 0.01 | 0.00 | 64 | 1015.4 |
| 20260506120153 | 41 | 136 | 0.9 | 4.3 | 0.00 | 0.01 | 0.00 | 64 | 1015.4 |
| 20260506115626 | 41 | 46 | 0.9 | 4.3 | 0.00 | 0.01 | 0.00 | 64 | 1015.4 |
| 20260506115124 | 42 | 136 | 1.7 | 9.6 | 0.00 | 0.01 | 0.00 | 64 | 1015.4 |
| 20260506114638 | 42 | 57 | 1.7 | 9.6 | 0.00 | 0.01 | 0.00 | 63 | 1015.3 |
| 20260506114132 | 42 | 26 | 2.6 | 9.6 | 0.00 | 0.01 | 0.00 | 62 | 1015.2 |
| 20260506113625 | 42 | 80 | 1.7 | 10.4 | 0.00 | 0.01 | 0.00 | 62 | 1015.0 |
| 20260506113138 | 42 | 267 | 3.5 | 10.4 | 0.00 | 0.01 | 0.00 | 62 | 1014.9 |
| 20260506112632 | 41 | 75 | 3.5 | 9.6 | 0.00 | 0.01 | 0.00 | 63 | 1014.8 |
| 20260506112125 | 41 | 298 | 2.6 | 12.2 | 0.00 | 0.01 | 0.00 | 65 | 1015.0 |
| 20260506111623 | 41 | 241 | 4.3 | 12.2 | 0.00 | 0.01 | 0.00 | 65 | 1015.0 |
| 20260506111138 | 41 | 142 | 0.9 | 7.0 | 0.00 | 0.01 | 0.00 | 66 | 1015.0 |
| 20260506110630 | 41 | 345 | 1.7 | 7.0 | 0.00 | 0.01 | 0.00 | 66 | 1015.0 |
| 20260506110125 | 41 | 349 | 0.9 | 6.1 | 0.00 | 0.01 | 0.00 | 65 | 1015.0 |
| 20260506105637 | 41 | 335 | 1.7 | 5.2 | 0.00 | 0.01 | 0.00 | 65 | 1015.1 |
| 20260506105131 | 40 | 186 | 1.7 | 6.1 | 0.00 | 0.01 | 0.00 | 65 | 1015.2 |
| 20260506104624 | 40 | 232 | 0.0 | 4.3 | 0.00 | 0.01 | 0.00 | 66 | 1015.4 |
| 20260506104137 | 40 | 269 | 0.9 | 4.3 | 0.00 | 0.01 | 0.00 | 66 | 1015.4 |
| 20260506103631 | 40 | 44 | 1.7 | 4.3 | 0.00 | 0.01 | 0.00 | 66 | 1015.6 |
| 20260506103129 | 40 | 237 | 0.9 | 2.6 | 0.00 | 0.01 | 0.00 | 65 | 1015.6 |
| 20260506102623 | 41 | 221 | 0.0 | 2.6 | 0.00 | 0.01 | 0.00 | 65 | 1015.6 |
| 20260506102137 | 41 | 215 | 1.7 | 2.6 | 0.00 | 0.01 | 0.00 | 64 | 1015.5 |
| 20260506101651 | 41 | 57 | 0.0 | 1.7 | 0.00 | 0.01 | 0.00 | 63 | 1015.4 |
| 20260506101124 | 41 | 57 | 0.0 | 2.6 | 0.00 | 0.01 | 0.00 | 63 | 1015.4 |
| 20260506100637 | 41 | 59 | 0.0 | 7.0 | 0.00 | 0.01 | 0.00 | 63 | 1015.3 |
| 20260506100130 | 41 | 45 | 3.5 | 7.0 | 0.00 | 0.01 | 0.00 | 62 | 1015.4 |
| 20260506095643 | 41 | 57 | 3.5 | 5.2 | 0.00 | 0.01 | 0.00 | 62 | 1015.5 |
| 20260506095137 | 41 | 135 | 0.9 | 7.0 | 0.00 | 0.01 | 0.00 | 62 | 1015.4 |
| 20260506094635 | 41 | 102 | 2.6 | 7.0 | 0.00 | 0.01 | 0.00 | 62 | 1015.4 |